Wind_Speed
9 9 9 9 9 9 9 9 9 10 10 11 12 12 13 14 16 17 18 18 19 18 18 18 18 17 17 17 17 18 18 18 17 16 15 16 16 16 16 16 16 16 15 15 15 15 15 15 16 16 15 12 11 11 11 10 10 9 10 10 11 12 12 14 15 15 15 16 14 14 15 15 14 13 12 11 11 11 12 13 12 12 13 13 12
8 8 8 8 8 8 8 8 9 9 10 10 11 12 13 14 16 18 19 19 20 20 20 19 20 20 19 19 19 19 20 20 20 20 19 18 18 17 17 17 17 17 17 17 16 16 16 16 16 17 16 15 13 11 11 10 10 10 10 10 11 12 12 13 14 14 15 17 17 15 15 16 16 15 13 12 13 13 14 15 15 14 13 13 13
8 7 7 6 6 6 7 7 8 9 10 10 10 11 14 15 16 18 19 20 21 21 21 20 20 21 21 21 21 21 22 23 23 24 23 23 22 21 21 21 20 20 19 19 18 17 18 17 17 17 18 17 16 14 12 11 11 11 11 11 11 12 13 13 13 13 14 16 17 17 16 16 15 15 14 13 14 15 16 17 17 16 15 14 13
6 6 5 5 5 5 6 7 8 9 9 9 10 12 14 15 16 17 19 20 22 23 24 24 23 23 23 23 24 25 26 26 26 27 27 27 27 25 25 24 24 22 21 21 20 20 19 19 18 19 19 18 18 17 16 14 13 12 12 12 13 13 14 14 14 14 14 15 16 17 17 17 16 15 15 15 15 16 17 18 17 17 17 16 15
4 4 3 3 4 5 7 8 9 9 9 9 10 12 15 16 17 19 22 23 25 26 28 29 29 28 27 27 27 28 29 28 28 29 29 29 29 29 28 27 26 24 23 23 22 22 23 23 21 21 21 20 19 19 19 18 17 16 15 14 14 15 15 15 15 15 15 15 16 17 18 18 17 17 16 16 15 15 17 17 17 17 18 17 16
2 2 3 3 5 6 7 9 10 9 10 12 13 15 17 19 21 23 25 26 27 28 29 30 31 31 30 29 28 30 32 32 32 31 31 30 30 29 29 29 28 27 26 25 24 23 25 26 25 23 22 22 21 20 21 20 20 20 19 17 17 17 17 17 17 18 17 16 16 16 17 18 18 17 17 17 16 15 16 16 17 17 18 19 18
3 4 5 5 5 6 8 10 11 12 13 15 16 18 20 21 23 25 27 28 29 30 31 31 32 33 33 31 31 32 34 36 36 35 34 33 32 31 30 29 29 29 29 29 27 26 26 27 28 27 26 25 24 23 24 23 22 22 22 21 20 20 20 20 20 21 20 18 18 17 17 17 18 17 17 17 16 15 16 16 17 17 18 19 19
4 6 6 6 5 7 10 11 13 15 16 18 19 21 23 24 25 27 28 30 31 32 33 33 34 34 34 33 33 34 36 38 39 38 36 35 33 32 31 30 29 29 30 30 29 29 28 29 30 31 30 28 26 26 27 26 25 25 25 25 24 23 23 23 23 24 23 22 20 19 18 18 18 17 18 18 16 15 16 17 18 18 19 19 19
6 8 8 7 7 8 11 13 15 16 18 20 21 23 24 25 27 28 29 31 33 34 34 34 34 34 34 34 34 35 37 39 40 39 38 36 34 32 31 31 30 30 31 31 31 30 30 29 31 31 31 28 26 27 29 28 27 27 28 29 29 27 27 26 26 26 25 25 23 21 20 19 18 17 18 18 17 16 17 18 17 18 20 20 19
8 10 10 9 9 10 12 14 15 17 19 21 22 23 25 26 27 29 30 32 34 35 35 35 34 34 35 35 35 35 37 39 40 39 37 35 34 32 31 31 30 30 31 31 31 30 29 28 28 28 27 27 27 28 30 31 31 31 31 31 32 31 31 30 30 29 28 27 25 24 24 22 20 19 19 18 18 19 19 19 17 18 20 20 19
11 13 12 11 12 13 14 15 16 18 20 21 23 24 25 27 28 30 32 35 37 37 37 36 36 37 37 36 36 37 39 40 39 37 34 32 31 30 30 29 29 30 30 30 29 28 27 26 26 26 25 25 27 28 30 32 33 34 34 34 34 34 34 33 33 33 32 31 29 28 27 26 23 22 21 20 21 20 20 20 19 19 20 21 20
14 14 13 13 14 15 16 17 19 20 21 22 23 25 26 28 30 32 35 38 38 38 38 38 37 37 37 37 38 39 39 38 35 33 31 29 28 28 28 28 28 29 29 29 28 27 26 26 26 26 26 26 27 29 30 31 32 33 35 35 35 35 36 37 37 36 35 34 33 32 32 30 27 25 24 23 23 23 23 23 23 22 22 21 20
13 13 13 14 16 17 18 19 21 22 23 24 25 26 28 29 32 35 38 39 38 38 38 37 37 37 38 39 40 39 37 34 32 30 28 27 26 26 26 27 27 28 28 28 29 29 29 29 28 28 28 28 29 29 30 30 30 30 31 33 34 34 36 38 40 40 38 37 37 38 37 34 32 29 25 24 25 26 27 26 25 25 24 23 21
13 13 14 15 17 18 19 20 22 23 25 26 27 28 30 32 35 38 39 38 37 37 37 37 37 39 41 40 38 35 33 30 29 27 26 25 25 25 25 25 26 27 27 28 29 30 30 30 29 28 27 27 28 28 28 29 29 30 30 32 33 33 34 34 36 39 39 38 39 40 40 38 37 33 28 27 28 28 29 30 29 28 27 26 24
13 14 15 16 18 19 21 22 23 25 26 28 29 31 33 35 37 38 37 37 37 38 39 40 41 41 40 38 35 32 29 27 26 25 25 24 25 25 25 25 25 25 25 25 26 26 27 26 26 26 25 25 26 27 28 28 29 30 30 31 31 32 32 32 33 34 36 36 36 37 38 39 40 38 34 32 32 31 30 32 33 32 31 29 29
15 15 16 18 19 21 22 23 25 26 28 30 32 33 35 36 37 37 36 37 38 40 42 42 41 38 35 33 31 30 28 26 25 24 24 24 24 25 25 25 25 25 25 25 25 25 26 26 26 26 27 27 28 29 30 30 30 30 30 30 30 31 31 32 33 33 33 33 32 33 35 37 39 39 38 37 36 34 33 35 36 35 34 34 34
17 18 19 20 21 23 24 25 26 27 30 33 34 35 37 37 37 36 37 39 41 41 41 40 37 34 32 30 29 28 26 25 24 24 24 24 24 24 24 25 25 25 25 25 25 25 26 27 27 27 27 28 29 29 30 31 31 31 31 31 31 30 29 30 32 33 32 32 32 32 33 33 34 34 36 39 40 37 36 38 39 37 37 39 38
20 20 21 22 23 24 25 25 27 30 33 35 35 36 37 37 36 37 39 41 41 39 37 35 33 31 30 28 27 25 24 23 23 23 23 23 23 23 23 23 23 23 23 23 23 24 24 25 26 26 26 26 27 28 29 29 29 30 30 31 31 30 29 29 30 30 31 32 32 33 33 32 31 31 34 38 42 42 42 41 39 39 40 43 41
23 23 24 23 24 25 26 27 30 34 36 36 36 37 37 36 37 39 40 40 38 34 32 30 30 29 27 25 24 23 23 22 22 22 22 22 23 22 21 20 20 20 20 20 20 21 22 23 24 24 24 24 24 25 26 28 28 28 28 28 28 28 28 29 29 28 28 29 30 31 33 32 32 31 32 34 38 43 47 46 43 41 42 44 42
25 26 25 25 26 26 27 30 34 36 36 36 36 37 36 37 38 39 38 36 33 30 27 25 26 26 24 22 22 22 22 22 21 21 21 21 22 22 22 21 19 18 19 19 19 19 19 20 21 22 22 22 22 22 23 25 26 26 26 27 27 26 26 26 27 27 28 27 27 28 29 30 32 32 32 32 33 37 43 47 47 46 45 45 43
27 27 27 27 27 28 31 35 37 36 35 35 36 36 37 39 40 38 35 31 27 25 23 21 22 23 23 22 21 21 21 21 21 21 21 21 21 22 23 22 21 20 19 19 19 19 20 20 20 20 21 21 21 21 22 23 24 25 25 26 27 26 26 25 25 26 27 26 25 25 26 27 29 31 32 33 32 33 37 41 46 47 47 47 47
27 27 26 27 28 32 36 37 36 34 33 33 35 36 38 39 38 35 30 25 22 20 20 19 19 21 22 21 21 21 21 21 21 22 22 22 23 23 23 24 24 23 23 22 21 21 22 22 21 21 21 21 21 22 22 23 24 25 26 27 27 27 27 27 26 25 26 26 25 24 24 25 27 29 32 33 32 31 33 35 40 45 46 47 48
27 26 26 27 30 34 36 35 33 32 33 33 34 37 38 38 34 29 23 20 18 18 17 17 18 18 20 21 21 20 21 21 22 22 23 23 23 23 24 24 25 25 26 25 24 23 23 23 22 22 22 22 22 22 23 24 24 26 27 28 29 29 29 29 28 27 26 26 25 24 22 23 24 26 28 30 32 32 32 32 34 37 41 43 46
26 27 29 31 33 34 34 32 31 32 32 33 35 36 35 33 28 22 19 18 18 18 17 17 17 18 18 19 20 20 21 21 22 22 22 22 22 22 23 23 24 25 25 24 24 24 23 22 22 22 23 23 24 24 24 25 25 26 26 27 28 29 29 28 28 27 26 25 25 24 23 22 23 24 25 26 28 29 30 31 31 31 33 35 39
28 31 33 34 34 32 30 29 29 31 32 34 35 34 30 25 21 19 18 19 19 20 20 19 20 20 19 19 19 19 19 20 21 21 20 20 21 21 22 22 23 23 23 22 22 23 23 23 22 22 22 23 24 24 24 24 25 25 26 27 28 28 28 27 26 26 26 25 25 25 24 24 24 25 25 26 27 27 27 28 30 30 29 29 32
31 33 33 33 31 28 28 28 28 30 32 34 34 30 23 18 17 17 18 19 20 21 22 22 22 22 21 20 19 19 18 19 19 20 20 20 20 20 21 22 22 22 22 22 23 24 24 24 23 22 22 22 23 24 24 23 24 24 25 26 27 28 27 26 25 25 25 25 25 25 25 25 25 25 25 25 27 27 27 27 27 27 27 27 28
33 32 30 29 27 27 27 27 28 30 32 31 28 23 17 14 15 17 18 18 20 22 22 22 23 23 22 21 21 20 21 21 20 20 21 21 21 20 21 22 23 23 23 22 23 24 25 25 24 23 22 21 22 23 23 23 24 24 24 25 25 26 26 25 25 24 25 25 25 25 25 25 26 26 25 25 26 27 27 27 26 25 25 27 28
30 27 25 25 25 25 25 26 28 29 29 26 21 16 13 13 15 17 19 20 21 21 22 22 22 23 23 22 22 22 23 23 23 23 24 25 25 25 25 25 25 26 26 25 24 24 25 25 24 23 22 21 21 22 23 23 23 24 24 24 24 24 25 25 25 24 25 25 25 25 25 25 25 26 25 25 25 26 26 27 27 27 26 27 29
25 24 24 24 24 24 25 27 28 26 23 19 15 13 14 15 16 17 19 20 21 21 21 22 22 22 22 23 23 24 24 25 26 27 28 29 29 29 29 29 28 29 29 29 28 27 26 25 23 22 22 22 22 22 22 22 23 24 24 25 25 25 25 25 26 26 26 26 26 26 26 25 25 24 24 24 24 25 25 26 27 28 27 27 28
24 23 24 24 23 24 26 27 25 20 16 14 13 13 15 17 17 18 18 19 20 20 20 21 22 22 22 23 23 24 25 27 28 30 30 30 29 30 30 29 29 29 29 29 29 28 27 25 24 23 23 23 23 23 22 22 22 23 25 26 27 27 27 27 27 27 28 28 29 30 29 28 27 26 25 25 24 23 24 25 26 27 27 27 27
23 23 23 23 23 25 25 24 20 15 13 13 13 14 15 16 16 17 17 17 17 18 19 20 21 21 22 22 23 24 26 28 28 29 29 28 28 28 27 27 27 28 28 27 27 26 26 25 25 25 25 26 26 26 26 25 24 24 24 25 26 27 28 28 29 29 29 29 30 31 31 32 31 30 28 28 26 25 24 25 25 26 26 27 27
22 23 23 24 25 25 24 20 16 14 14 14 16 16 15 15 15 15 15 16 17 17 18 19 20 20 21 22 24 25 26 27 27 27 27 27 27 27 26 26 26 26 26 25 25 25 25 25 26 27 28 27 27 27 28 27 27 27 26 25 26 27 28 28 29 29 30 30 30 31 32 32 33 32 31 30 29 28 27 26 25 25 26 26 26
22 23 24 25 25 24 20 16 15 14 15 16 16 16 16 15 15 15 15 16 16 17 17 18 19 20 22 23 24 24 24 25 25 25 26 27 27 27 27 26 25 25 24 24 24 25 25 26 27 28 29 29 28 28 28 28 29 29 29 28 27 27 27 28 28 29 29 29 30 30 31 32 33 33 33 31 30 30 29 28 27 26 26 26 26
22 23 24 25 24 21 18 15 14 15 15 15 15 15 15 14 14 15 16 16 16 16 16 17 18 20 21 22 22 22 22 23 23 24 25 26 26 26 26 25 24 23 23 24 24 25 26 26 27 28 28 29 29 29 29 30 30 30 30 30 29 28 28 28 28 28 28 29 29 29 30 31 32 33 33 32 32 31 30 30 29 28 27 27 27
23 23 23 23 22 19 17 15 14 15 15 14 14 15 14 14 15 16 17 17 17 16 17 17 18 19 19 19 19 20 20 22 22 23 24 25 25 26 25 24 24 23 23 23 24 25 25 26 26 27 28 29 30 31 32 32 32 32 31 31 30 30 29 29 29 28 28 28 28 28 29 29 30 31 32 32 32 32 30 30 29 29 29 28 28
22 22 22 22 20 17 15 14 14 15 15 15 14 14 14 14 16 16 16 17 17 18 18 18 18 18 17 18 18 19 20 21 22 23 24 25 25 25 26 26 26 26 25 25 25 26 26 27 27 28 28 29 30 31 32 33 34 34 33 32 31 30 30 30 30 30 29 29 28 27 28 28 29 29 30 31 31 32 31 30 29 29 29 30 29
21 22 21 18 15 14 14 14 14 14 15 14 14 14 14 15 16 16 16 17 18 18 18 18 18 17 16 17 18 19 21 22 22 23 24 24 25 26 26 27 27 27 28 28 29 29 29 29 29 29 30 31 32 32 33 33 34 34 34 34 33 32 31 30 30 30 30 30 30 29 28 28 28 29 30 30 31 31 31 30 30 29 29 30 30
20 19 16 13 12 13 14 14 14 14 14 14 13 14 15 16 16 16 16 17 18 18 18 18 18 18 17 18 19 21 21 22 22 22 23 24 24 25 26 27 28 28 29 30 31 32 32 32 31 31 32 32 33 34 35 35 35 35 35 35 35 34 33 31 30 29 30 30 30 30 30 29 28 28 29 30 31 31 31 30 30 30 29 29 29
17 15 13 12 13 14 14 14 14 14 13 13 14 15 15 16 15 15 16 17 18 18 18 17 18 18 19 20 21 21 22 23 23 24 25 26 26 26 27 27 28 29 30 31 31 32 32 33 33 33 34 34 35 36 37 37 37 37 37 37 36 36 35 34 32 30 29 29 29 29 29 29 29 28 29 29 30 31 30 30 29 29 29 29 29
14 14 13 13 14 14 15 15 14 13 13 13 14 15 15 15 15 15 17 18 18 17 18 18 18 19 20 21 22 23 24 25 27 28 28 29 29 29 29 29 30 31 31 32 32 33 34 35 36 36 36 36 36 37 37 38 38 38 38 38 37 36 36 35 34 32 30 29 28 28 28 29 29 29 28 29 30 30 30 30 29 28 28 28 28
13 14 14 14 15 15 15 14 14 13 13 14 15 15 15 15 15 16 17 18 17 17 18 19 19 21 22 23 24 24 25 26 28 29 30 30 31 31 32 32 33 34 35 35 36 36 37 37 38 38 38 38 38 38 38 38 38 38 38 38 37 36 35 35 34 33 31 30 29 28 28 28 29 29 29 29 29 30 30 29 28 28 28 27 27
13 13 14 15 16 15 14 14 14 14 14 15 15 15 15 15 16 17 18 18 17 17 18 19 20 21 23 24 25 25 26 27 29 30 31 32 33 34 35 35 36 37 38 38 39 39 39 39 39 39 39 39 39 39 39 39 39 38 38 37 36 35 35 34 34 33 32 31 29 28 27 27 27 28 29 29 30 30 29 28 28 27 27 27 27
12 13 14 15 15 14 14 14 14 14 15 15 15 15 15 16 16 17 18 18 18 18 19 20 21 22 24 26 27 28 28 29 30 31 32 33 34 35 36 37 37 38 38 38 39 39 39 39 39 39 39 39 39 40 40 40 40 39 38 36 35 34 34 34 33 33 33 32 30 28 26 25 26 27 27 28 29 29 29 28 28 27 27 26 26
12 13 13 14 14 14 14 14 15 15 16 15 15 15 15 16 16 18 18 18 18 19 20 21 23 24 26 27 28 29 30 30 31 32 33 34 35 36 37 37 37 38 38 38 38 39 39 40 40 40 39 39 40 40 40 40 40 39 37 35 34 33 33 33 33 33 34 34 32 29 27 25 25 25 25 26 27 28 28 28 28 28 28 27 26
12 12 12 13 14 14 14 15 15 15 15 15 15 15 15 16 17 18 19 19 19 20 21 22 24 25 27 28 29 30 31 32 33 34 35 36 37 38 38 38 38 38 38 39 39 39 39 40 40 40 40 41 41 41 41 40 39 37 36 34 33 32 31 32 33 34 36 35 33 30 27 26 25 25 25 26 27 28 28 27 27 28 28 29 28
12 12 13 14 14 14 14 15 15 15 14 14 14 15 15 17 18 19 19 20 20 21 22 24 25 26 28 29 31 32 33 34 35 36 36 37 38 38 39 39 39 39 39 39 39 39 39 40 41 41 42 42 42 42 42 40 38 36 34 32 31 30 30 32 33 35 36 36 34 30 27 27 27 26 26 25 25 25 25 25 25 26 27 29 30
13 13 14 14 13 13 14 15 15 15 14 14 14 15 17 18 19 20 21 21 21 22 23 25 26 28 29 30 32 33 34 35 36 37 37 38 39 39 39 40 40 40 40 39 39 39 39 40 41 42 43 43 43 42 41 39 36 34 31 29 28 28 30 32 33 34 35 35 32 28 27 28 27 25 22 22 22 23 23 23 23 23 25 28 30
14 14 14 14 14 14 14 15 16 15 14 14 15 16 18 19 20 21 22 22 23 24 25 26 28 29 30 32 34 35 36 37 38 39 39 40 40 40 40 40 40 40 40 39 39 39 39 40 42 42 43 42 42 40 38 35 33 31 28 27 27 28 30 31 32 33 33 32 29 27 27 28 25 21 19 19 21 23 23 23 22 23 25 27 29
15 14 14 14 14 14 15 15 15 15 14 14 15 17 19 20 21 22 23 24 24 25 26 27 29 30 32 33 35 37 38 39 39 40 40 40 39 39 40 40 40 40 40 40 39 39 40 41 42 42 41 40 38 36 34 32 30 28 25 25 26 28 29 30 31 32 32 30 28 27 27 26 23 19 18 19 21 23 24 25 25 24 24 25 27
16 15 16 15 15 15 15 15 15 14 14 15 16 18 20 21 22 23 24 25 25 26 28 29 30 32 33 35 37 38 39 39 40 40 39 39 39 39 39 40 40 40 40 39 39 39 40 41 41 40 38 36 35 33 32 30 28 26 25 25 26 27 29 29 30 31 31 30 27 26 25 23 22 20 20 20 21 23 24 24 25 25 24 23 23
17 17 16 16 15 15 15 15 15 15 15 16 17 19 20 22 23 24 25 26 27 28 29 30 32 33 35 37 38 39 40 40 40 40 40 40 40 40 40 41 41 40 40 39 39 40 40 40 39 38 35 33 33 33 32 30 27 26 25 26 27 28 28 29 29 29 28 27 25 24 24 24 23 22 21 21 23 23 23 23 24 24 23 21 20
Wind_Direction
87 83 80 79 74 70 65 57 50 42 38 35 32 29 27 26 24 19 15 12 9 6 1 359 358 357 356 354 352 350 349 348 348 347 345 342 340 338 337 336 335 334 334 334 333 332 333 333 331 328 324 321 317 313 311 309 308 305 298 292 286 279 275 276 280 282 280 282 285 284 284 286 289 291 291 291 291 286 277 273 268 260 257 256 253
83 79 79 78 73 68 60 49 40 32 27 25 25 24 21 19 15 10 6 3 1 358 354 351 349 349 348 346 345 343 342 341 339 338 337 335 333 330 328 327 326 325 323 323 323 322 322 323 323 321 318 317 314 309 305 301 299 298 294 291 286 282 278 274 275 277 275 275 279 279 277 276 279 284 287 285 283 280 276 273 270 262 255 252 251
80 76 74 75 70 61 48 36 27 21 18 19 20 18 14 9 3 0 359 357 355 353 350 347 345 343 343 341 340 340 339 338 336 335 333 331 329 328 326 324 322 318 315 313 313 312 311 311 313 312 311 311 310 307 302 296 291 288 288 286 284 282 280 275 271 271 269 269 274 276 273 271 272 275 278 276 274 274 274 273 272 267 259 251 249
75 69 65 62 54 43 30 21 15 9 8 12 13 9 3 358 353 351 351 351 350 349 348 347 344 342 340 339 338 338 338 336 334 332 330 328 326 324 324 323 320 315 311 308 306 304 303 302 303 302 301 302 303 301 297 292 287 282 279 280 280 279 279 277 272 268 265 262 265 269 271 271 270 270 269 268 268 269 269 270 271 270 266 257 251
63 50 43 36 23 16 9 2 359 358 358 1 358 351 347 345 344 345 344 345 346 345 346 346 344 340 337 336 336 335 334 332 329 326 324 322 320 318 318 318 315 312 309 305 301 298 298 297 296 294 293 293 293 293 291 288 284 280 276 274 274 274 274 274 272 269 266 261 257 259 264 266 266 266 266 264 264 265 266 267 267 267 266 262 255
25 345 344 353 355 356 350 343 342 343 344 345 342 339 339 340 342 342 341 341 341 341 342 342 341 337 333 330 330 330 330 327 323 320 316 313 311 309 309 309 307 304 302 300 296 294 294 293 290 287 286 287 287 286 284 283 281 280 278 275 271 270 269 269 269 268 267 265 261 258 260 263 263 264 264 263 262 262 264 265 265 262 260 259 257
328 313 320 329 332 331 327 328 335 337 338 338 337 337 338 338 338 338 338 337 336 335 336 337 337 335 331 327 324 324 324 323 322 319 315 312 308 305 303 302 301 300 300 299 296 294 294 293 290 285 281 279 281 280 279 280 281 280 280 277 273 270 268 266 266 266 264 263 262 261 261 263 265 266 266 264 263 264 264 262 261 257 252 251 252
315 307 315 317 309 312 320 329 336 336 337 337 338 338 337 336 335 334 334 333 331 331 331 332 332 330 327 324 320 318 318 319 320 319 316 312 307 303 300 297 295 296 297 297 295 293 294 294 293 291 284 277 278 280 279 280 281 282 281 278 274 270 267 266 265 264 264 262 260 260 260 260 263 265 266 265 264 265 263 257 253 251 249 244 243
303 298 305 311 314 321 327 332 335 335 335 336 337 336 335 333 331 330 328 327 326 325 325 325 325 324 322 318 314 313 314 315 317 316 314 311 306 302 299 295 292 290 289 291 292 293 294 294 294 295 290 280 276 275 274 274 275 276 277 276 274 272 269 265 263 262 262 262 261 261 260 259 260 261 262 264 263 261 259 256 251 246 243 239 237
287 287 296 309 320 324 327 332 335 333 331 331 332 331 330 328 326 324 323 322 321 320 319 318 318 318 316 313 311 310 311 313 314 314 312 309 305 302 299 296 294 292 290 290 291 293 295 295 295 295 292 285 280 276 272 272 271 270 272 273 274 275 272 268 266 264 263 261 260 260 260 259 259 260 259 259 258 256 255 255 252 245 239 235 234
275 283 294 306 313 317 321 326 327 324 322 323 324 323 322 322 321 321 321 320 318 316 315 314 314 313 312 311 310 311 312 312 313 311 309 306 304 301 299 297 295 295 294 293 293 294 294 293 293 294 293 290 287 284 281 278 275 272 271 270 271 272 271 270 269 267 265 263 261 260 260 259 258 258 258 256 255 255 254 253 251 247 242 237 233
274 284 295 301 306 311 315 316 316 314 313 313 314 315 316 318 320 320 319 318 316 316 315 314 313 312 311 311 312 313 313 313 311 310 308 305 303 301 299 297 296 295 295 294 294 293 291 290 291 292 293 292 289 287 284 282 278 275 274 273 274 274 274 274 272 268 264 264 264 262 261 260 257 254 255 256 255 255 254 253 251 249 247 242 234
276 286 293 299 304 307 308 308 308 306 305 306 309 311 313 315 317 317 317 316 316 317 316 315 314 312 312 312 313 313 313 312 311 310 309 306 304 303 300 297 295 294 294 294 293 293 292 291 291 290 290 289 288 287 285 284 281 278 276 277 278 277 276 275 274 270 266 267 267 263 259 258 256 252 252 253 252 251 251 251 252 251 248 244 238
284 287 292 295 298 300 301 302 302 302 303 305 308 309 310 312 314 316 317 316 316 315 315 314 313 313 313 313 313 313 312 312 312 312 310 308 307 306 302 299 297 295 294 293 293 292 291 291 291 290 288 287 286 286 285 284 282 280 279 277 277 276 276 276 275 274 272 271 271 268 262 259 256 251 247 248 249 249 250 251 251 251 249 245 240
289 288 289 292 294 297 298 299 300 302 303 305 306 307 308 312 315 317 317 316 315 314 313 313 313 313 312 312 312 311 311 311 312 311 309 308 307 306 304 303 301 299 298 297 295 294 292 292 291 291 289 287 286 286 285 284 283 282 281 280 279 278 279 279 279 278 277 275 274 272 268 265 260 251 244 243 245 246 247 250 251 251 250 247 243
292 292 293 294 295 296 296 297 299 301 303 304 306 307 310 314 317 317 317 315 314 314 313 313 313 313 312 311 311 311 312 312 311 308 306 305 303 302 301 301 300 300 299 297 295 293 292 291 290 289 288 287 286 286 285 285 285 284 284 284 283 282 281 280 279 278 278 277 275 273 271 271 268 259 248 243 245 245 245 248 250 251 252 251 248
289 292 292 292 291 291 292 294 297 300 304 307 308 309 313 316 318 317 316 314 314 314 313 313 313 312 310 310 311 312 313 313 311 309 307 305 302 299 298 297 297 298 297 297 296 295 294 293 292 291 290 288 288 287 286 286 286 286 286 286 286 285 283 280 277 276 276 275 275 274 272 272 273 268 257 249 247 247 247 247 248 251 253 254 254
285 286 285 284 284 285 287 290 295 302 308 311 311 313 315 316 316 315 314 314 314 313 313 312 311 309 309 311 313 313 314 314 313 311 310 309 308 305 303 301 300 300 300 300 300 299 298 297 296 295 293 291 290 289 289 288 287 287 286 284 284 285 284 282 280 278 276 274 272 272 271 271 272 271 264 256 250 246 245 246 247 249 251 254 256
279 279 278 277 277 279 282 289 297 305 310 312 312 313 314 314 314 314 313 313 312 312 311 310 308 308 310 314 316 315 316 316 314 313 313 313 313 312 311 310 309 307 306 305 303 301 300 299 298 297 296 295 293 292 292 291 290 290 289 287 285 284 283 283 284 282 279 276 272 269 268 268 267 267 265 262 257 249 244 243 246 248 250 253 255
274 274 274 272 273 278 286 294 301 306 309 311 312 313 313 313 313 312 312 312 311 309 309 308 308 309 313 317 317 317 317 316 317 317 317 316 316 316 317 317 316 315 313 311 310 309 306 304 302 301 301 300 299 297 295 294 292 291 290 289 288 286 284 283 284 284 282 280 277 274 270 266 264 264 263 263 264 259 250 245 245 247 249 251 253
270 270 271 272 278 288 296 300 302 305 309 311 312 313 314 313 311 311 311 311 308 307 310 312 312 313 315 317 317 317 316 316 317 318 318 318 318 317 317 317 317 317 316 315 314 312 310 307 305 305 304 303 301 301 299 298 297 296 293 291 290 288 287 285 283 282 282 282 280 279 276 272 267 264 263 262 262 261 257 251 247 247 249 251 252
266 268 272 279 288 298 301 301 303 307 310 311 311 313 313 311 309 310 312 310 307 308 312 315 315 314 314 315 315 315 315 316 317 317 317 316 317 316 315 314 313 313 313 312 311 309 306 304 303 302 300 298 298 300 301 302 302 300 299 297 295 293 291 288 286 283 283 283 282 279 276 273 269 266 266 266 264 262 259 255 250 248 249 250 252
266 270 278 289 297 300 300 301 305 308 309 310 311 311 311 309 309 311 311 309 308 310 313 314 314 312 311 311 312 313 314 314 314 314 314 314 314 314 312 311 310 310 310 311 310 307 304 303 301 298 296 296 297 299 301 302 302 302 302 301 300 299 298 295 293 290 288 287 287 285 280 274 271 269 268 269 270 269 267 265 261 256 252 251 250
269 277 287 295 298 297 298 301 306 308 308 309 309 309 309 309 309 311 311 311 312 313 314 314 313 310 308 308 309 311 312 313 313 313 313 313 313 313 311 309 308 308 309 310 310 309 308 306 303 301 300 300 300 300 300 301 301 302 302 302 301 301 300 299 296 294 292 290 290 289 286 280 276 275 273 272 274 274 271 271 271 269 264 259 254
277 285 292 295 294 294 298 303 306 307 307 307 307 308 308 307 307 309 312 314 315 315 317 317 315 312 310 310 310 311 312 312 313 313 313 313 314 313 311 309 307 307 308 309 309 309 309 309 308 307 306 304 303 302 301 301 302 302 301 300 298 296 295 294 293 293 293 292 290 289 286 284 283 281 279 276 276 277 275 272 271 272 274 271 265
284 289 291 290 292 297 302 305 306 306 306 305 306 307 307 306 306 308 311 312 312 314 317 318 315 313 312 312 312 313 315 315 315 315 314 314 315 314 309 308 307 307 307 306 306 307 307 307 308 308 307 306 305 304 303 302 301 301 300 298 296 294 292 291 291 290 289 289 290 289 287 286 288 288 287 284 282 280 279 276 273 273 275 276 273
286 288 287 289 295 300 302 304 305 304 304 304 304 305 308 307 305 304 306 309 310 313 315 315 313 312 313 315 317 318 319 320 320 319 317 316 317 315 312 310 310 307 305 303 303 304 305 306 308 309 308 306 304 302 300 298 296 295 295 294 294 295 296 297 296 293 290 288 289 291 290 289 290 290 289 289 288 285 283 281 278 276 274 273 272
287 288 290 294 299 300 301 302 302 302 302 301 301 302 303 300 299 301 305 308 310 311 311 311 310 311 314 317 319 319 320 322 322 321 320 321 321 320 318 316 314 311 309 308 307 307 307 307 308 306 303 299 295 293 291 291 290 291 291 292 293 295 298 300 300 298 294 292 291 290 290 291 292 291 291 290 290 288 286 284 282 280 278 275 272
290 293 296 298 298 299 300 301 301 302 300 297 295 296 296 297 300 304 307 309 310 310 309 308 309 312 315 316 318 320 322 322 322 323 324 325 324 322 321 320 318 316 314 314 315 316 315 312 309 305 301 299 298 296 293 291 291 292 294 295 295 295 296 297 298 297 296 296 295 293 291 290 291 292 292 292 292 290 287 286 284 283 283 281 276
292 295 295 296 297 299 300 302 304 303 296 288 287 290 293 298 304 307 309 311 310 307 304 305 309 313 314 315 319 322 322 322 323 324 324 325 324 322 321 320 318 316 316 318 320 320 319 317 315 312 310 308 308 308 306 302 299 298 299 299 299 298 298 297 296 296 295 295 295 295 293 291 291 291 291 291 292 291 289 286 285 285 285 283 280
293 293 293 294 296 299 301 304 303 296 287 284 287 290 294 300 306 310 313 311 305 300 300 305 310 314 314 316 319 321 320 321 322 323 324 324 324 323 322 320 316 315 317 320 321 321 320 319 317 315 315 315 314 314 313 312 310 307 304 302 301 300 299 298 297 296 294 293 292 292 292 292 291 291 291 290 290 290 290 289 287 287 286 285 285
291 291 292 294 296 299 301 300 293 285 284 288 293 299 305 309 311 313 312 305 299 300 304 308 311 313 314 315 318 319 321 322 324 325 326 326 327 327 327 325 320 319 321 322 322 320 319 317 315 314 314 314 314 313 313 313 313 311 308 305 302 300 299 299 299 298 297 296 294 292 291 291 291 291 291 291 289 287 287 288 288 287 287 287 287
289 291 292 293 295 298 299 294 283 279 283 291 299 307 313 314 314 311 304 300 302 306 309 312 313 312 313 316 319 323 325 325 327 328 328 327 327 328 329 329 327 325 324 323 322 320 319 317 315 314 314 314 313 313 314 313 313 312 310 308 305 302 300 299 299 298 298 297 296 294 292 290 290 290 290 290 289 287 285 285 285 285 285 286 286
290 290 290 292 294 297 297 290 279 278 286 297 306 312 314 313 309 303 299 302 307 309 310 312 311 311 313 318 323 325 325 326 328 328 327 327 327 328 329 330 329 327 325 323 322 321 320 319 317 315 314 315 315 315 315 314 313 312 310 308 306 303 301 298 297 296 296 295 295 294 293 291 289 288 288 288 287 286 284 283 282 282 282 282 283
288 287 287 290 293 295 294 288 281 285 297 308 312 311 309 306 302 302 305 309 311 312 313 313 312 313 318 323 326 326 327 328 328 328 327 327 328 328 328 329 329 328 327 327 326 325 325 323 322 320 319 319 318 317 316 315 313 312 310 307 305 304 302 300 298 296 294 294 294 293 293 292 290 289 288 287 286 286 284 283 281 280 279 279 279
283 282 283 287 290 292 291 286 288 299 310 314 311 306 304 304 304 307 310 311 312 316 317 316 316 320 324 328 328 328 329 329 328 328 329 329 329 329 329 330 331 332 333 333 332 331 330 329 327 326 324 323 321 320 318 316 315 314 313 310 307 305 303 302 301 298 295 294 294 294 293 293 292 290 288 287 286 286 285 284 282 280 279 278 277
280 280 282 285 287 288 287 290 299 308 310 306 303 302 303 306 307 308 310 312 316 319 317 316 318 322 326 328 328 328 330 332 331 331 330 330 330 330 331 331 332 332 332 332 332 331 330 329 328 327 326 325 324 323 321 320 319 318 316 315 312 308 305 303 302 301 298 295 295 295 295 294 293 291 289 287 285 284 284 283 282 280 279 277 276
279 279 281 283 284 285 290 298 304 305 302 300 300 302 304 306 307 309 313 316 319 318 315 315 318 322 326 329 330 332 333 332 330 329 329 329 330 330 330 329 328 327 327 327 327 327 327 326 326 325 325 325 325 324 324 323 322 320 319 318 316 314 311 307 304 301 298 296 294 294 294 294 293 292 290 287 285 283 282 282 281 279 277 276 275
272 273 278 283 287 290 296 301 300 298 298 300 302 303 304 305 309 314 317 317 317 315 314 316 320 324 327 330 332 332 331 329 328 329 330 331 330 329 327 326 324 322 322 322 323 324 324 324 324 324 324 324 324 324 324 323 322 321 319 318 317 316 315 312 308 304 299 295 293 291 291 292 292 291 289 288 286 283 281 281 281 279 276 274 272
263 270 279 285 289 294 297 298 297 298 300 301 301 302 304 308 313 316 317 317 317 315 316 319 322 324 327 329 330 331 330 330 330 330 330 329 329 328 326 325 323 322 321 321 321 322 323 323 323 323 323 322 322 321 321 321 320 319 318 316 315 315 314 312 310 307 303 299 295 291 290 289 290 289 289 287 286 284 282 281 281 280 278 275 272
264 273 281 286 291 295 297 297 298 300 300 299 300 303 308 312 315 316 317 317 317 317 317 320 323 324 324 325 327 329 330 329 327 325 326 326 326 325 325 325 324 323 322 321 321 321 321 321 321 321 320 320 319 318 318 318 317 316 314 313 313 313 313 311 310 309 306 303 298 293 290 289 289 288 288 286 285 284 282 281 280 280 278 276 272
264 273 279 284 289 293 295 296 298 299 300 301 304 307 311 314 316 316 317 317 317 317 318 319 320 321 321 322 324 326 327 325 322 321 322 322 322 323 323 322 322 321 320 319 319 319 319 318 318 318 318 318 318 317 317 316 315 314 311 309 310 311 311 310 310 310 309 306 301 295 291 289 288 288 287 286 285 284 282 280 278 277 276 275 273
265 273 278 282 288 292 294 296 297 297 299 303 306 308 311 314 314 314 314 315 317 317 317 318 319 319 319 320 323 324 324 322 320 319 319 319 320 320 320 320 319 318 318 317 317 317 317 317 316 317 317 317 317 316 316 315 314 313 310 307 306 307 308 309 310 311 310 307 303 299 295 290 288 287 286 286 285 284 281 277 273 271 271 272 271
271 276 279 283 287 291 293 294 295 295 298 303 305 306 308 311 311 311 312 315 317 318 317 317 318 318 319 320 322 322 321 320 319 318 318 319 319 319 318 318 318 317 316 316 317 317 317 317 317 317 317 317 316 316 315 314 313 311 308 304 302 303 305 307 309 311 312 310 306 302 297 292 288 287 286 287 288 286 282 276 271 268 268 268 268
276 278 282 286 288 291 293 294 295 296 299 301 301 302 305 307 307 308 312 315 317 317 317 316 317 318 319 320 321 321 320 320 320 319 320 319 319 318 318 317 316 316 316 317 318 318 318 318 318 318 318 318 317 316 315 313 311 308 304 301 299 300 302 305 307 309 311 310 307 303 299 295 292 290 289 291 292 291 287 281 274 269 266 266 266
281 283 287 289 290 293 296 296 297 298 299 298 298 299 302 304 305 308 312 314 315 316 316 316 316 318 320 320 321 321 320 320 319 319 319 318 318 318 318 317 318 318 318 319 319 319 320 319 319 319 319 318 317 316 314 312 309 305 301 298 297 298 301 303 305 307 310 310 307 304 300 298 296 294 293 294 295 295 293 289 282 275 269 266 264
284 286 289 290 293 296 297 297 299 299 298 297 297 298 300 302 305 308 311 312 313 315 315 315 317 318 320 320 319 319 319 319 320 320 320 320 320 320 320 320 320 320 320 321 321 320 321 320 320 319 319 319 317 316 314 311 307 304 300 297 295 297 300 303 305 307 309 310 308 304 299 298 297 297 296 297 298 299 298 294 289 283 277 271 267
287 289 291 294 297 298 297 295 296 297 298 298 298 296 298 301 304 307 309 311 312 314 315 315 316 318 318 318 318 319 321 322 322 323 322 322 322 321 321 322 322 322 322 322 322 321 321 321 320 320 319 318 317 316 315 312 308 305 301 297 295 297 300 303 305 307 310 310 309 305 301 300 299 298 298 299 301 302 302 299 295 289 283 277 272
289 290 293 294 295 294 293 293 295 298 301 300 296 294 296 300 304 306 308 310 312 313 313 314 315 316 317 318 320 322 323 323 323 322 322 322 322 322 322 323 323 323 322 322 322 322 322 321 321 320 319 318 319 320 319 317 313 308 303 299 297 298 300 303 305 309 311 310 307 304 302 301 300 298 297 298 299 301 303 304 304 299 290 281 274
286 287 288 290 291 292 294 296 299 302 302 297 293 293 296 300 303 306 308 310 311 312 313 314 315 316 317 320 321 322 322 322 322 322 322 323 323 324 324 323 323 323 323 323 323 323 322 322 321 320 318 319 321 323 322 319 316 311 306 301 299 300 301 303 305 307 308 308 307 306 305 305 303 299 295 294 294 296 300 303 306 305 298 288 278
281 282 286 289 292 295 297 299 301 303 301 296 294 295 298 301 304 307 309 310 312 313 314 315 315 316 318 320 321 321 321 322 323 324 324 325 325 325 325 324 324 323 323 323 323 323 323 322 321 320 319 320 322 324 323 321 317 313 308 304 302 302 302 304 305 305 306 307 309 310 310 308 305 301 295 292 292 295 298 301 303 303 300 295 288
Height
3145 3145 3145 3145 3144 3144 3144 3143 3143 3142 3142 3141 3140 3139 3139 3138 3137 3136 3135 3134 3133 3132 3131 3130 3128 3127 3126 3125 3123 3122 3121 3120 3118 3117 3116 3115 3114 3113 3112 3111 3110 3109 3108 3107 3105 3104 3103 3103 3101 3100 3098 3097 3096 3095 3094 3093 3092 3091 3090 3089 3088 3087 3085 3084 3083 3083 3082 3081 3080 3080 3079 3078 3078 3077 3077 3077 3077 3076 3076 3076 3076 3076 3076 3075 3075
3145 3145 3145 3145 3145 3144 3144 3144 3143 3143 3142 3141 3140 3140 3139 3138 3137 3136 3135 3134 3132 3131 3130 3129 3127 3126 3125 3123 3122 3121 3119 3118 3117 3116 3115 3113 3112 3111 3110 3109 3108 3107 3106 3105 3104 3102 3101 3101 3100 3098 3097 3096 3095 3094 3092 3091 3090 3089 3088 3087 3087 3085 3084 3083 3082 3081 3081 3080 3079 3078 3078 3077 3076 3076 3075 3075 3075 3074 3074 3073 3074 3074 3074 3074 3073
3146 3146 3146 3145 3145 3145 3144 3144 3143 3143 3142 3141 3140 3139 3138 3138 3136 3135 3134 3133 3132 3130 3129 3128 3126 3125 3123 3122 3121 3119 3118 3116 3115 3113 3112 3111 3110 3109 3108 3107 3106 3105 3104 3103 3101 3100 3099 3098 3097 3096 3095 3094 3093 3092 3091 3089 3088 3087 3086 3086 3085 3084 3083 3082 3080 3079 3079 3078 3077 3077 3076 3075 3075 3074 3073 3073 3073 3072 3072 3071 3072 3072 3072 3072 3072
3146 3146 3146 3145 3145 3145 3144 3144 3143 3142 3142 3141 3140 3139 3138 3137 3136 3135 3134 3132 3131 3129 3128 3126 3125 3123 3122 3120 3118 3117 3115 3114 3112 3111 3109 3108 3107 3106 3105 3104 3103 3102 3101 3100 3099 3098 3096 3095 3095 3094 3092 3092 3091 3090 3088 3087 3086 3085 3084 3083 3082 3082 3081 3080 3079 3078 3077 3077 3076 3075 3074 3073 3073 3072 3071 3071 3071 3070 3070 3070 3069 3069 3069 3070 3070
3146 3146 3146 3145 3145 3144 3144 3143 3143 3142 3141 3140 3140 3139 3138 3137 3135 3134 3132 3131 3129 3128 3126 3124 3122 3121 3119 3118 3116 3114 3112 3111 3110 3108 3107 3105 3104 3103 3102 3101 3100 3099 3098 3097 3096 3095 3093 3092 3091 3090 3089 3088 3088 3087 3086 3084 3083 3082 3082 3081 3080 3079 3078 3077 3076 3076 3075 3075 3074 3073 3072 3071 3071 3070 3070 3069 3069 3068 3068 3068 3067 3067 3067 3067 3068
3145 3145 3145 3145 3144 3144 3143 3143 3142 3141 3141 3140 3139 3138 3137 3135 3134 3132 3130 3129 3127 3126 3124 3123 3121 3119 3118 3116 3114 3112 3111 3109 3107 3105 3103 3102 3101 3100 3098 3097 3096 3095 3094 3093 3092 3091 3090 3089 3088 3087 3085 3084 3084 3083 3082 3081 3080 3079 3079 3078 3077 3076 3075 3075 3074 3073 3072 3072 3072 3071 3070 3069 3069 3068 3067 3067 3066 3066 3066 3065 3065 3065 3064 3064 3065
3144 3144 3144 3144 3144 3143 3142 3142 3141 3141 3140 3139 3138 3136 3135 3133 3132 3130 3128 3127 3125 3123 3122 3121 3119 3117 3116 3114 3112 3110 3108 3106 3104 3102 3100 3098 3097 3096 3095 3094 3092 3091 3090 3089 3088 3087 3086 3085 3084 3083 3081 3080 3079 3079 3078 3077 3076 3075 3075 3075 3074 3073 3072 3072 3071 3070 3069 3069 3068 3068 3068 3067 3066 3066 3065 3064 3064 3064 3064 3063 3063 3062 3062 3062 3062
3144 3144 3143 3143 3143 3142 3142 3141 3140 3139 3138 3137 3136 3134 3133 3131 3129 3128 3126 3124 3122 3121 3119 3118 3117 3115 3113 3111 3109 3107 3105 3103 3100 3098 3096 3094 3092 3091 3090 3089 3088 3087 3086 3085 3084 3083 3082 3081 3080 3078 3077 3076 3075 3074 3073 3073 3072 3071 3071 3070 3069 3069 3068 3068 3067 3066 3066 3065 3065 3064 3064 3064 3063 3063 3062 3061 3061 3061 3061 3060 3060 3060 3059 3059 3059
3143 3142 3142 3142 3141 3141 3141 3140 3139 3137 3136 3135 3134 3133 3131 3129 3128 3126 3125 3123 3121 3119 3118 3116 3115 3113 3111 3109 3106 3104 3102 3099 3097 3094 3092 3090 3088 3087 3085 3084 3083 3082 3081 3080 3079 3078 3077 3076 3075 3074 3073 3072 3071 3070 3069 3069 3068 3067 3067 3066 3065 3065 3064 3064 3063 3062 3062 3061 3061 3061 3060 3060 3060 3060 3059 3058 3058 3058 3058 3057 3057 3057 3056 3056 3057
3142 3141 3141 3140 3140 3140 3139 3138 3137 3136 3135 3133 3132 3131 3129 3128 3126 3125 3123 3121 3119 3118 3116 3114 3112 3110 3108 3106 3103 3101 3099 3096 3093 3091 3088 3086 3084 3083 3081 3080 3079 3077 3076 3075 3075 3074 3073 3072 3071 3070 3069 3067 3066 3065 3065 3064 3063 3062 3062 3062 3061 3060 3060 3059 3059 3058 3057 3057 3057 3056 3056 3056 3057 3056 3056 3055 3055 3054 3054 3054 3054 3054 3053 3053 3054
3140 3139 3139 3139 3138 3138 3137 3136 3135 3134 3132 3131 3130 3129 3127 3126 3125 3124 3122 3120 3117 3115 3113 3112 3109 3107 3104 3102 3099 3098 3095 3093 3090 3087 3085 3083 3081 3079 3077 3076 3075 3073 3072 3071 3071 3070 3069 3068 3067 3066 3065 3064 3062 3061 3060 3060 3059 3057 3057 3057 3057 3056 3055 3054 3054 3054 3053 3052 3053 3052 3051 3052 3053 3052 3052 3052 3051 3051 3051 3050 3051 3051 3050 3050 3051
3139 3138 3138 3137 3136 3136 3135 3134 3133 3132 3131 3129 3128 3127 3126 3125 3124 3122 3119 3117 3115 3112 3110 3108 3106 3103 3100 3098 3095 3093 3091 3089 3086 3084 3081 3079 3077 3075 3074 3072 3071 3070 3068 3067 3066 3066 3065 3065 3064 3062 3061 3060 3058 3057 3056 3055 3054 3053 3052 3052 3052 3052 3050 3049 3048 3048 3048 3048 3048 3048 3047 3048 3049 3049 3048 3048 3047 3047 3046 3046 3046 3047 3047 3047 3047
3138 3137 3136 3135 3135 3134 3133 3132 3131 3131 3130 3128 3127 3126 3125 3123 3122 3119 3117 3114 3111 3109 3107 3105 3102 3099 3096 3094 3091 3089 3087 3085 3082 3080 3078 3076 3074 3072 3070 3069 3068 3066 3065 3064 3062 3061 3061 3060 3060 3059 3057 3055 3054 3052 3051 3050 3049 3049 3048 3047 3047 3047 3045 3044 3043 3042 3042 3042 3042 3041 3042 3043 3043 3044 3045 3044 3043 3042 3042 3042 3042 3042 3042 3043 3044
3136 3135 3134 3134 3133 3132 3132 3131 3131 3129 3128 3127 3126 3124 3122 3121 3119 3116 3113 3110 3108 3105 3103 3101 3099 3096 3093 3090 3088 3086 3084 3081 3079 3077 3075 3073 3071 3069 3068 3066 3065 3063 3062 3060 3059 3057 3056 3055 3055 3054 3052 3051 3049 3047 3046 3045 3044 3044 3043 3042 3042 3041 3040 3039 3038 3036 3036 3036 3035 3035 3036 3037 3037 3038 3040 3039 3037 3037 3037 3037 3037 3037 3037 3038 3039
3134 3133 3133 3132 3132 3131 3130 3130 3129 3127 3126 3124 3123 3121 3119 3118 3116 3113 3110 3107 3104 3102 3099 3097 3095 3092 3089 3086 3084 3082 3080 3078 3076 3074 3072 3070 3068 3066 3065 3063 3062 3060 3059 3057 3056 3054 3052 3051 3050 3049 3048 3047 3045 3043 3042 3041 3040 3039 3038 3037 3037 3036 3035 3034 3033 3032 3031 3030 3030 3029 3030 3030 3030 3031 3033 3032 3032 3032 3032 3032 3032 3032 3032 3032 3033
3133 3132 3132 3131 3130 3129 3128 3127 3126 3125 3123 3122 3120 3118 3116 3114 3112 3109 3106 3103 3100 3098 3095 3092 3090 3088 3085 3083 3081 3079 3077 3075 3073 3071 3069 3067 3065 3064 3062 3061 3059 3058 3056 3054 3053 3051 3049 3048 3047 3046 3044 3043 3041 3040 3038 3036 3035 3034 3033 3033 3032 3031 3030 3029 3028 3027 3026 3026 3025 3024 3024 3024 3024 3024 3025 3026 3027 3027 3027 3026 3026 3027 3027 3027 3027
3131 3131 3130 3129 3128 3127 3126 3125 3124 3122 3120 3119 3117 3114 3112 3110 3108 3105 3102 3099 3097 3094 3091 3088 3086 3084 3081 3079 3078 3076 3074 3072 3070 3067 3066 3064 3063 3061 3060 3058 3057 3055 3053 3051 3050 3048 3046 3044 3043 3042 3041 3039 3038 3036 3034 3032 3031 3030 3029 3028 3027 3026 3026 3024 3022 3022 3021 3021 3020 3020 3019 3019 3019 3019 3019 3020 3021 3022 3021 3020 3021 3022 3022 3021 3022
3128 3128 3127 3127 3126 3124 3123 3122 3120 3119 3117 3115 3112 3110 3108 3106 3104 3102 3099 3095 3093 3090 3087 3084 3082 3080 3078 3077 3075 3073 3071 3069 3067 3065 3063 3061 3059 3058 3057 3055 3054 3052 3050 3049 3047 3045 3043 3041 3039 3038 3037 3035 3034 3032 3030 3028 3027 3026 3024 3023 3022 3022 3021 3019 3018 3017 3017 3016 3016 3015 3014 3014 3014 3014 3014 3014 3014 3015 3014 3014 3016 3017 3016 3015 3017
3125 3125 3124 3124 3123 3121 3119 3118 3117 3115 3112 3110 3108 3106 3104 3103 3100 3098 3095 3092 3089 3087 3084 3081 3078 3076 3075 3074 3072 3070 3068 3066 3064 3062 3060 3058 3056 3054 3053 3052 3051 3049 3047 3046 3044 3042 3040 3038 3036 3034 3033 3032 3030 3029 3027 3024 3023 3022 3020 3018 3017 3017 3016 3014 3013 3013 3012 3011 3011 3010 3010 3009 3009 3009 3008 3008 3008 3008 3007 3008 3010 3010 3010 3010 3012
3122 3121 3121 3120 3119 3118 3116 3115 3113 3111 3108 3106 3103 3102 3100 3099 3096 3094 3092 3089 3085 3083 3081 3078 3076 3073 3072 3071 3069 3067 3065 3063 3061 3059 3057 3055 3053 3051 3049 3048 3047 3046 3044 3043 3041 3040 3038 3036 3034 3032 3030 3028 3027 3025 3023 3020 3018 3017 3016 3014 3012 3011 3011 3010 3009 3007 3006 3006 3006 3005 3004 3004 3004 3003 3003 3003 3002 3001 3001 3001 3003 3003 3004 3005 3006
3119 3118 3117 3116 3115 3114 3113 3111 3109 3107 3105 3102 3099 3097 3096 3094 3091 3090 3088 3086 3083 3080 3078 3076 3073 3071 3069 3068 3066 3064 3062 3060 3059 3057 3055 3053 3051 3049 3046 3045 3044 3042 3041 3040 3038 3037 3035 3033 3031 3030 3027 3025 3023 3021 3020 3018 3015 3014 3012 3010 3008 3007 3006 3005 3004 3003 3001 3001 3000 3000 2999 2999 2998 2998 2997 2997 2997 2996 2995 2995 2996 2996 2997 2998 2999
3115 3114 3113 3112 3111 3110 3108 3106 3104 3103 3101 3098 3096 3094 3092 3089 3087 3085 3084 3083 3080 3078 3076 3074 3071 3069 3067 3065 3064 3062 3060 3058 3057 3055 3053 3050 3048 3046 3044 3042 3040 3039 3038 3037 3036 3034 3032 3030 3029 3027 3025 3022 3021 3019 3017 3016 3014 3011 3009 3007 3005 3004 3002 3001 3000 2999 2998 2996 2995 2995 2994 2993 2992 2992 2991 2991 2991 2990 2989 2989 2989 2989 2990 2991 2992
3111 3110 3109 3108 3108 3106 3104 3103 3101 3099 3096 3094 3092 3090 3088 3085 3083 3082 3081 3079 3077 3076 3074 3072 3070 3068 3065 3064 3062 3060 3058 3056 3054 3052 3050 3048 3046 3044 3042 3039 3037 3036 3034 3033 3032 3030 3029 3027 3026 3024 3022 3020 3019 3017 3015 3013 3011 3009 3007 3005 3003 3001 3000 2998 2997 2996 2995 2993 2992 2991 2990 2989 2988 2987 2986 2985 2985 2984 2984 2984 2983 2983 2983 2984 2985
3107 3107 3106 3104 3103 3102 3101 3099 3097 3095 3093 3091 3089 3087 3085 3082 3080 3078 3077 3075 3074 3073 3071 3070 3068 3066 3064 3062 3060 3058 3056 3054 3052 3050 3048 3046 3044 3042 3040 3037 3035 3033 3032 3031 3029 3027 3025 3024 3022 3021 3019 3018 3016 3014 3012 3010 3008 3006 3004 3002 3000 2998 2997 2996 2994 2993 2992 2990 2989 2988 2987 2985 2984 2983 2982 2981 2980 2979 2979 2979 2979 2978 2977 2978 2978
3104 3103 3102 3101 3100 3099 3098 3096 3094 3092 3090 3087 3086 3084 3082 3080 3077 3075 3074 3072 3071 3069 3068 3066 3065 3063 3062 3060 3058 3056 3055 3052 3050 3048 3046 3044 3042 3040 3038 3035 3033 3032 3030 3029 3027 3024 3022 3021 3020 3018 3017 3015 3013 3011 3009 3007 3005 3003 3001 2999 2997 2995 2994 2993 2991 2990 2988 2987 2986 2984 2983 2982 2981 2979 2978 2977 2976 2975 2975 2974 2974 2974 2973 2972 2972
3101 3099 3099 3098 3097 3095 3094 3093 3091 3089 3086 3084 3082 3081 3079 3077 3075 3073 3072 3070 3068 3066 3065 3063 3062 3060 3058 3057 3056 3054 3053 3051 3048 3046 3044 3042 3040 3038 3036 3033 3032 3030 3028 3027 3025 3022 3020 3018 3017 3016 3014 3012 3010 3008 3006 3004 3002 3000 2999 2996 2994 2992 2991 2989 2988 2987 2985 2984 2982 2981 2980 2979 2978 2976 2975 2974 2973 2972 2971 2970 2970 2970 2969 2968 2968
3097 3096 3095 3094 3093 3092 3091 3089 3088 3085 3083 3081 3079 3078 3076 3075 3073 3071 3070 3068 3066 3064 3063 3061 3059 3057 3055 3054 3053 3051 3050 3048 3046 3044 3042 3040 3038 3036 3034 3032 3030 3028 3026 3024 3023 3020 3018 3016 3014 3013 3011 3009 3007 3004 3002 3001 2999 2997 2996 2994 2991 2989 2988 2986 2985 2983 2982 2980 2979 2978 2977 2976 2975 2973 2972 2971 2969 2969 2968 2967 2966 2965 2965 2964 2963
3093 3091 3091 3090 3089 3088 3087 3086 3084 3082 3080 3078 3077 3075 3074 3072 3071 3069 3067 3066 3064 3062 3060 3058 3056 3055 3053 3052 3050 3048 3047 3045 3043 3041 3039 3037 3035 3033 3031 3029 3026 3024 3022 3020 3019 3018 3016 3014 3012 3010 3008 3006 3004 3002 2999 2998 2996 2994 2993 2991 2989 2987 2985 2983 2982 2980 2978 2977 2975 2974 2973 2972 2971 2970 2968 2967 2966 2965 2964 2963 2962 2961 2961 2960 2959
3088 3087 3087 3086 3086 3085 3084 3083 3081 3079 3077 3076 3074 3073 3071 3070 3068 3067 3065 3063 3061 3059 3058 3056 3054 3052 3051 3049 3047 3046 3044 3042 3040 3037 3035 3033 3031 3029 3027 3025 3022 3019 3017 3015 3014 3013 3012 3010 3008 3006 3004 3002 3000 2999 2997 2995 2993 2991 2989 2987 2986 2984 2982 2980 2978 2977 2975 2973 2972 2970 2969 2968 2968 2966 2965 2964 2963 2962 2961 2959 2958 2957 2957 2956 2955
3085 3084 3083 3083 3083 3082 3080 3079 3077 3076 3074 3073 3072 3071 3069 3067 3066 3065 3063 3061 3060 3057 3055 3053 3052 3050 3048 3047 3045 3044 3041 3039 3037 3035 3033 3030 3028 3026 3024 3021 3019 3016 3014 3012 3011 3009 3007 3005 3004 3002 3000 2998 2996 2995 2993 2992 2990 2988 2986 2984 2982 2980 2979 2977 2975 2973 2972 2970 2968 2966 2965 2964 2964 2963 2962 2961 2960 2959 2957 2956 2955 2953 2953 2952 2951
3081 3080 3079 3079 3079 3078 3077 3075 3074 3073 3072 3071 3070 3069 3068 3066 3064 3063 3062 3060 3058 3056 3054 3052 3050 3049 3047 3045 3043 3041 3039 3037 3035 3033 3030 3028 3026 3023 3021 3019 3016 3013 3012 3010 3009 3007 3004 3002 3000 2998 2996 2995 2993 2991 2989 2987 2986 2984 2983 2981 2979 2976 2975 2973 2971 2969 2968 2967 2965 2963 2961 2960 2959 2959 2958 2957 2956 2955 2954 2953 2951 2950 2949 2948 2947
3078 3077 3076 3076 3075 3075 3073 3072 3071 3070 3069 3068 3067 3066 3065 3064 3063 3061 3060 3058 3056 3054 3052 3051 3049 3047 3045 3043 3041 3039 3037 3035 3032 3030 3028 3025 3023 3021 3019 3016 3013 3011 3009 3008 3006 3004 3002 3000 2997 2995 2993 2991 2989 2987 2985 2983 2981 2980 2978 2977 2975 2973 2971 2969 2967 2965 2963 2962 2961 2959 2958 2956 2955 2954 2953 2952 2951 2951 2950 2949 2948 2947 2946 2945 2944
3074 3073 3073 3072 3071 3071 3070 3070 3069 3068 3066 3065 3065 3064 3063 3061 3060 3059 3057 3055 3054 3052 3051 3049 3047 3044 3042 3040 3038 3037 3034 3032 3030 3028 3025 3023 3020 3018 3016 3014 3011 3009 3007 3006 3003 3001 2999 2997 2995 2992 2990 2988 2986 2984 2982 2980 2978 2976 2974 2972 2971 2969 2967 2965 2963 2961 2959 2957 2956 2955 2953 2952 2951 2950 2949 2948 2947 2946 2946 2945 2944 2943 2942 2941 2940
3070 3070 3069 3068 3068 3067 3067 3067 3066 3065 3064 3063 3062 3061 3060 3058 3057 3056 3055 3053 3052 3050 3049 3047 3045 3042 3040 3038 3037 3035 3032 3030 3028 3025 3023 3021 3018 3016 3014 3012 3009 3007 3005 3003 3001 2999 2997 2994 2992 2989 2987 2984 2982 2980 2978 2976 2974 2972 2970 2968 2966 2964 2963 2961 2959 2957 2955 2953 2952 2950 2949 2947 2946 2945 2944 2943 2942 2942 2941 2940 2940 2939 2939 2938 2937
3067 3066 3065 3064 3064 3064 3064 3064 3063 3062 3061 3061 3060 3058 3057 3056 3055 3053 3051 3050 3049 3048 3046 3044 3042 3040 3038 3037 3034 3032 3030 3028 3026 3023 3021 3019 3016 3014 3012 3009 3007 3005 3003 3001 2999 2996 2994 2992 2989 2987 2984 2982 2979 2977 2974 2972 2970 2968 2966 2964 2962 2960 2958 2956 2955 2953 2951 2949 2948 2946 2944 2943 2942 2940 2939 2938 2937 2937 2936 2936 2935 2935 2934 2934 2933
3063 3063 3062 3062 3062 3062 3062 3061 3060 3059 3058 3058 3057 3056 3055 3053 3052 3050 3049 3048 3046 3045 3043 3041 3039 3038 3036 3034 3032 3030 3028 3026 3023 3021 3019 3016 3014 3011 3009 3006 3004 3002 3000 2998 2996 2994 2991 2989 2986 2984 2981 2979 2976 2974 2971 2968 2966 2964 2961 2959 2957 2955 2953 2951 2950 2948 2946 2945 2943 2942 2940 2939 2937 2936 2935 2934 2932 2931 2931 2931 2930 2930 2929 2929 2928
3060 3060 3060 3060 3060 3059 3059 3058 3057 3056 3056 3055 3054 3053 3052 3051 3049 3048 3047 3045 3044 3042 3040 3038 3037 3036 3034 3032 3030 3028 3026 3023 3021 3019 3017 3015 3012 3009 3007 3004 3001 2999 2997 2995 2993 2990 2988 2986 2984 2981 2978 2976 2973 2970 2968 2965 2962 2960 2957 2955 2953 2951 2949 2947 2945 2943 2941 2940 2938 2937 2936 2934 2933 2931 2930 2929 2928 2927 2926 2926 2925 2925 2925 2924 2923
3056 3056 3057 3057 3057 3056 3056 3055 3055 3054 3053 3053 3052 3050 3049 3048 3047 3046 3045 3043 3041 3040 3038 3036 3035 3033 3032 3030 3027 3025 3023 3021 3019 3017 3015 3013 3010 3008 3005 3002 3000 2997 2995 2992 2990 2987 2985 2983 2980 2978 2975 2973 2970 2967 2964 2961 2959 2956 2953 2951 2948 2946 2944 2942 2940 2939 2937 2935 2933 2932 2931 2930 2928 2927 2925 2924 2923 2922 2921 2921 2920 2920 2920 2920 2919
3054 3054 3054 3054 3054 3054 3053 3053 3052 3052 3051 3050 3049 3048 3047 3046 3045 3044 3042 3041 3039 3037 3035 3034 3032 3030 3029 3027 3025 3023 3021 3019 3017 3014 3012 3010 3007 3005 3003 3000 2998 2995 2992 2990 2987 2985 2982 2979 2977 2974 2972 2969 2966 2963 2960 2957 2954 2952 2949 2946 2944 2942 2940 2938 2936 2934 2932 2930 2929 2928 2926 2925 2923 2922 2921 2919 2918 2917 2916 2916 2915 2914 2914 2915 2914
3052 3052 3052 3052 3052 3051 3051 3050 3050 3049 3048 3048 3047 3046 3045 3044 3043 3041 3040 3039 3037 3035 3033 3032 3030 3028 3026 3024 3022 3020 3018 3015 3013 3010 3008 3006 3004 3002 2999 2997 2994 2992 2989 2987 2984 2981 2979 2976 2973 2970 2967 2965 2962 2959 2957 2954 2950 2948 2945 2942 2940 2938 2936 2933 2931 2929 2927 2926 2924 2923 2922 2920 2919 2917 2916 2914 2913 2912 2911 2911 2910 2909 2909 2909 2909
3050 3050 3050 3050 3049 3049 3048 3048 3047 3047 3046 3045 3044 3043 3042 3041 3040 3039 3038 3036 3035 3033 3031 3029 3027 3025 3023 3022 3020 3018 3016 3013 3010 3008 3005 3003 3000 2998 2996 2993 2991 2988 2985 2982 2980 2977 2975 2972 2969 2966 2963 2960 2958 2955 2952 2950 2947 2944 2941 2938 2935 2933 2931 2929 2927 2925 2923 2921 2920 2918 2917 2916 2914 2913 2911 2910 2908 2907 2906 2906 2905 2904 2904 2904 2904
3049 3049 3048 3048 3047 3046 3046 3045 3045 3044 3043 3043 3042 3041 3040 3039 3038 3037 3035 3034 3033 3031 3029 3027 3025 3023 3021 3019 3018 3016 3014 3011 3008 3006 3003 3001 2998 2995 2993 2990 2987 2984 2981 2978 2976 2973 2970 2967 2965 2962 2959 2956 2953 2950 2947 2944 2942 2939 2936 2933 2931 2929 2927 2924 2922 2920 2919 2917 2915 2913 2912 2911 2909 2908 2906 2905 2904 2903 2902 2901 2900 2900 2899 2899 2898
3047 3047 3046 3046 3045 3044 3044 3043 3042 3042 3041 3040 3039 3038 3037 3037 3036 3034 3033 3032 3030 3029 3027 3025 3023 3021 3019 3017 3015 3013 3011 3009 3006 3003 3001 2998 2995 2992 2990 2987 2984 2981 2978 2975 2972 2969 2966 2963 2960 2957 2954 2951 2948 2945 2942 2939 2936 2933 2931 2928 2926 2924 2922 2920 2918 2916 2914 2912 2910 2909 2907 2906 2905 2903 2902 2901 2899 2898 2897 2896 2896 2895 2894 2894 2893
3045 3045 3044 3043 3043 3042 3042 3041 3040 3039 3038 3038 3037 3036 3035 3035 3033 3032 3031 3029 3028 3026 3024 3023 3021 3019 3017 3015 3013 3011 3009 3006 3003 3000 2998 2995 2992 2989 2986 2983 2980 2977 2974 2971 2968 2965 2962 2958 2955 2953 2950 2947 2944 2940 2937 2934 2931 2928 2925 2923 2921 2919 2917 2915 2913 2911 2909 2907 2905 2904 2903 2901 2900 2899 2898 2896 2895 2894 2893 2892 2891 2890 2889 2889 2889
3042 3042 3042 3041 3041 3040 3039 3039 3038 3037 3036 3036 3035 3034 3033 3032 3031 3030 3028 3027 3025 3024 3022 3020 3018 3016 3014 3012 3010 3008 3005 3003 3000 2997 2994 2991 2988 2985 2982 2979 2976 2973 2970 2967 2964 2961 2957 2954 2951 2948 2945 2942 2939 2935 2932 2929 2926 2923 2920 2918 2916 2915 2913 2911 2909 2907 2905 2902 2900 2899 2897 2896 2895 2894 2893 2892 2891 2889 2888 2887 2886 2885 2885 2884 2884
3039 3039 3039 3039 3038 3038 3037 3036 3036 3035 3034 3033 3033 3032 3031 3030 3028 3027 3026 3024 3023 3021 3019 3017 3015 3013 3011 3009 3007 3004 3002 2999 2996 2993 2991 2987 2984 2981 2978 2975 2972 2969 2966 2962 2959 2956 2953 2949 2946 2942 2939 2936 2933 2930 2927 2923 2921 2918 2915 2914 2912 2910 2909 2907 2905 2903 2900 2898 2896 2894 2893 2892 2891 2890 2889 2888 2886 2885 2883 2882 2881 2881 2880 2880 2879
3037 3037 3037 3036 3036 3035 3035 3034 3033 3033 3032 3031 3031 3030 3028 3027 3026 3025 3023 3022 3020 3019 3017 3015 3013 3011 3008 3006 3003 3001 2998 2996 2993 2990 2986 2983 2980 2977 2973 2970 2967 2964 2961 2958 2955 2952 2948 2945 2941 2938 2935 2931 2928 2924 2921 2918 2915 2913 2911 2909 2908 2906 2905 2903 2901 2898 2896 2894 2891 2890 2888 2887 2886 2886 2885 2884 2882 2881 2879 2878 2877 2876 2876 2875 2874
3035 3035 3035 3034 3034 3033 3032 3032 3031 3031 3030 3029 3028 3027 3026 3025 3023 3022 3021 3019 3018 3016 3014 3012 3010 3008 3005 3003 3000 2997 2995 2991 2988 2985 2982 2979 2975 2972 2969 2966 2963 2960 2957 2954 2951 2947 2944 2941 2937 2933 2930 2926 2923 2919 2916 2913 2910 2908 2906 2905 2904 2902 2900 2899 2896 2894 2892 2890 2888 2886 2884 2883 2882 2881 2881 2880 2878 2877 2875 2874 2873 2872 2871 2870 2869
3033 3033 3032 3032 3032 3031 3030 3030 3029 3028 3028 3027 3026 3025 3023 3022 3021 3019 3018 3016 3015 3013 3011 3009 3007 3004 3002 2999 2997 2994 2991 2987 2984 2981 2978 2975 2971 2968 2965 2962 2959 2956 2953 2949 2946 2943 2940 2936 2933 2929 2925 2922 2918 2915 2911 2908 2906 2904 2902 2901 2900 2898 2896 2894 2892 2890 2888 2886 2884 2882 2881 2879 2878 2878 2877 2876 2875 2873 2872 2870 2869 2868 2867 2865 2865
3031 3031 3030 3030 3029 3029 3028 3028 3027 3026 3025 3024 3023 3022 3021 3020 3018 3017 3015 3014 3012 3010 3008 3006 3003 3001 2998 2996 2993 2990 2987 2984 2980 2977 2974 2971 2967 2964 2961 2958 2955 2952 2948 2945 2942 2939 2935 2932 2928 2925 2921 2918 2914 2911 2908 2905 2902 2900 2899 2897 2896 2894 2892 2890 2888 2886 2884 2882 2880 2879 2877 2876 2875 2874 2873 2872 2871 2870 2869 2867 2866 2864 2862 2861 2860
3028 3028 3028 3027 3027 3026 3026 3025 3024 3023 3023 3022 3021 3020 3018 3017 3016 3014 3012 3010 3008 3006 3004 3002 3000 2997 2995 2992 2989 2986 2983 2980 2976 2973 2969 2966 2963 2960 2957 2954 2950 2947 2944 2941 2938 2935 2931 2928 2924 2921 2917 2914 2911 2908 2905 2902 2899 2897 2895 2894 2892 2890 2888 2886 2884 2882 2880 2878 2877 2875 2874 2872 2871 2870 2869 2868 2867 2866 2865 2864 2862 2861 2859 2857 2856